| time (UTC) | temp F | wind direction | speed MPH | gust MPH | rain 1hr in | rain 24hr in | rain mn in | humidity % | barometer mb |
| 20260505211403 | 54 | 252 | 0.0 | 4.0 | 0.00 | 0.09 | 0.09 | 66 | 1013.9 |
| 20260505211224 | 54 | 261 | 0.0 | 4.0 | 0.00 | 0.09 | 0.09 | 66 | 1013.9 |
| 20260505211004 | 54 | 279 | 1.0 | 6.0 | 0.00 | 0.09 | 0.09 | 66 | 1013.9 |
| 20260505210804 | 54 | 291 | 2.0 | 9.0 | 0.00 | 0.09 | 0.09 | 66 | 1014.0 |
| 20260505210603 | 54 | 292 | 2.0 | 10.0 | 0.00 | 0.09 | 0.09 | 66 | 1014.0 |
| 20260505210404 | 54 | 294 | 3.0 | 10.0 | 0.00 | 0.09 | 0.09 | 66 | 1013.9 |
| 20260505210204 | 54 | 294 | 4.0 | 10.0 | 0.00 | 0.09 | 0.09 | 65 | 1014.0 |
| 20260505210004 | 54 | 293 | 4.0 | 10.0 | 0.00 | 0.09 | 0.09 | 67 | 1014.0 |
| 20260505205804 | 54 | 286 | 3.0 | 11.0 | 0.00 | 0.09 | 0.09 | 67 | 1014.0 |
| 20260505205603 | 54 | 272 | 3.0 | 11.0 | 0.00 | 0.09 | 0.09 | 67 | 1014.0 |
| 20260505205424 | 54 | 266 | 3.0 | 11.0 | 0.00 | 0.09 | 0.09 | 66 | 1014.0 |
| 20260505205203 | 55 | 255 | 3.0 | 11.0 | 0.00 | 0.09 | 0.09 | 68 | 1014.0 |
| 20260505205004 | 55 | 250 | 2.0 | 11.0 | 0.00 | 0.09 | 0.09 | 65 | 1014.0 |
| 20260505204804 | 55 | 254 | 2.0 | 10.0 | 0.00 | 0.09 | 0.09 | 65 | 1013.9 |
| 20260505204604 | 55 | 268 | 1.0 | 8.0 | 0.00 | 0.09 | 0.09 | 65 | 1013.9 |
| 20260505204404 | 55 | 268 | 0.0 | 6.0 | 0.00 | 0.09 | 0.09 | 64 | 1013.9 |
| 20260505204204 | 55 | 259 | 0.0 | 4.0 | 0.00 | 0.09 | 0.09 | 63 | 1013.9 |
| 20260505204024 | 55 | 263 | 0.0 | 1.0 | 0.00 | 0.09 | 0.09 | 64 | 1014.0 |
| 20260505203803 | 55 | 0 | 0.0 | 0.0 | 0.00 | 0.09 | 0.09 | 67 | 1014.0 |
| 20260505203604 | 55 | 306 | 0.0 | 3.0 | 0.00 | 0.09 | 0.09 | 66 | 1013.9 |
| 20260505203425 | 55 | 306 | 0.0 | 3.0 | 0.00 | 0.09 | 0.09 | 69 | 1013.9 |
| 20260505203203 | 55 | 306 | 0.0 | 3.0 | 0.00 | 0.09 | 0.09 | 68 | 1013.9 |
| 20260505203004 | 55 | 306 | 0.0 | 3.0 | 0.00 | 0.09 | 0.09 | 68 | 1013.9 |
| 20260505202803 | 56 | 305 | 0.0 | 3.0 | 0.00 | 0.09 | 0.09 | 67 | 1013.9 |
| 20260505202604 | 55 | 308 | 0.0 | 3.0 | 0.00 | 0.09 | 0.09 | 69 | 1013.9 |
| 20260505202404 | 55 | 317 | 1.0 | 5.0 | 0.00 | 0.09 | 0.09 | 71 | 1013.9 |
| 20260505202204 | 55 | 322 | 1.0 | 5.0 | 0.00 | 0.09 | 0.09 | 69 | 1013.9 |
| 20260505202025 | 55 | 322 | 1.0 | 5.0 | 0.00 | 0.09 | 0.09 | 66 | 1013.9 |
| 20260505201803 | 55 | 310 | 1.0 | 7.0 | 0.00 | 0.09 | 0.09 | 65 | 1014.0 |
| 20260505201604 | 55 | 309 | 1.0 | 7.0 | 0.00 | 0.09 | 0.09 | 63 | 1014.0 |
| 20260505201405 | 55 | 299 | 1.0 | 7.0 | 0.00 | 0.09 | 0.09 | 63 | 1014.0 |
| 20260505201204 | 55 | 281 | 1.0 | 7.0 | 0.00 | 0.09 | 0.09 | 64 | 1013.9 |
| 20260505201025 | 54 | 285 | 1.0 | 7.0 | 0.00 | 0.09 | 0.09 | 65 | 1014.0 |
| 20260505200804 | 54 | 286 | 1.0 | 4.0 | 0.00 | 0.09 | 0.09 | 68 | 1014.0 |
| 20260505200603 | 53 | 287 | 1.0 | 4.0 | 0.00 | 0.09 | 0.09 | 66 | 1014.0 |
| 20260505200403 | 54 | 287 | 1.0 | 4.0 | 0.00 | 0.09 | 0.09 | 65 | 1014.1 |
| 20260505200224 | 54 | 288 | 1.0 | 6.0 | 0.00 | 0.09 | 0.09 | 66 | 1014.1 |
| 20260505200004 | 54 | 284 | 1.0 | 6.0 | 0.00 | 0.09 | 0.09 | 67 | 1014.1 |
| 20260505195803 | 54 | 282 | 1.0 | 6.0 | 0.00 | 0.09 | 0.09 | 68 | 1014.1 |
| 20260505195604 | 54 | 282 | 1.0 | 6.0 | 0.00 | 0.09 | 0.09 | 65 | 1014.1 |
| 20260505195404 | 54 | 284 | 1.0 | 6.0 | 0.00 | 0.09 | 0.09 | 66 | 1014.1 |
| 20260505195203 | 54 | 300 | 1.0 | 5.0 | 0.00 | 0.09 | 0.09 | 70 | 1014.1 |
| 20260505195024 | 54 | 304 | 0.0 | 5.0 | 0.00 | 0.09 | 0.09 | 70 | 1014.2 |
| 20260505194803 | 54 | 296 | 1.0 | 5.0 | 0.00 | 0.09 | 0.09 | 71 | 1014.2 |
| 20260505194604 | 54 | 291 | 1.0 | 7.0 | 0.00 | 0.09 | 0.09 | 71 | 1014.2 |
| 20260505194403 | 53 | 290 | 1.0 | 7.0 | 0.00 | 0.09 | 0.09 | 72 | 1014.2 |
| 20260505194204 | 53 | 285 | 1.0 | 7.0 | 0.00 | 0.09 | 0.09 | 73 | 1014.3 |
| 20260505194004 | 53 | 283 | 2.0 | 7.0 | 0.00 | 0.09 | 0.09 | 72 | 1014.3 |
| 20260505193804 | 53 | 283 | 2.0 | 7.0 | 0.00 | 0.09 | 0.09 | 70 | 1014.3 |
| 20260505193605 | 53 | 282 | 1.0 | 7.0 | 0.00 | 0.09 | 0.09 | 70 | 1014.2 |
| 20260505193404 | 53 | 282 | 1.0 | 7.0 | 0.00 | 0.09 | 0.09 | 70 | 1014.3 |
| 20260505193205 | 53 | 280 | 1.0 | 7.0 | 0.00 | 0.09 | 0.09 | 70 | 1014.3 |
| 20260505193003 | 53 | 280 | 0.0 | 6.0 | 0.00 | 0.09 | 0.09 | 72 | 1014.3 |
| 20260505192804 | 53 | 269 | 0.0 | 3.0 | 0.00 | 0.09 | 0.09 | 70 | 1014.3 |
| 20260505192604 | 53 | 275 | 0.0 | 4.0 | 0.00 | 0.09 | 0.09 | 70 | 1014.4 |
| 20260505192403 | 53 | 284 | 0.0 | 4.0 | 0.00 | 0.09 | 0.09 | 71 | 1014.4 |
| 20260505192204 | 53 | 284 | 0.0 | 4.0 | 0.00 | 0.09 | 0.09 | 68 | 1014.3 |
| 20260505192004 | 53 | 286 | 0.0 | 5.0 | 0.00 | 0.09 | 0.09 | 72 | 1014.3 |
| 20260505191804 | 53 | 283 | 1.0 | 5.0 | 0.00 | 0.09 | 0.09 | 74 | 1014.3 |
| 20260505191604 | 53 | 287 | 1.0 | 5.0 | 0.00 | 0.09 | 0.09 | 74 | 1014.3 |
| 20260505191425 | 53 | 285 | 1.0 | 5.0 | 0.00 | 0.09 | 0.09 | 76 | 1014.3 |
| 20260505191203 | 52 | 297 | 1.0 | 9.0 | 0.00 | 0.09 | 0.09 | 77 | 1014.3 |
| 20260505191004 | 52 | 299 | 1.0 | 9.0 | 0.00 | 0.09 | 0.09 | 73 | 1014.3 |
| 20260505190804 | 52 | 301 | 1.0 | 9.0 | 0.00 | 0.09 | 0.09 | 73 | 1014.3 |
| 20260505190603 | 52 | 297 | 1.0 | 9.0 | 0.00 | 0.09 | 0.09 | 74 | 1014.3 |
| 20260505190404 | 52 | 291 | 2.0 | 9.0 | 0.00 | 0.09 | 0.09 | 75 | 1014.3 |
| 20260505190204 | 52 | 280 | 1.0 | 6.0 | 0.00 | 0.09 | 0.09 | 75 | 1014.3 |
| 20260505190025 | 51 | 275 | 1.0 | 6.0 | 0.00 | 0.09 | 0.09 | 74 | 1014.3 |
| 20260505185824 | 51 | 266 | 1.0 | 6.0 | 0.00 | 0.09 | 0.09 | 74 | 1014.3 |
| 20260505185625 | 52 | 264 | 1.0 | 6.0 | 0.00 | 0.09 | 0.09 | 78 | 1014.3 |
| 20260505185404 | 52 | 258 | 1.0 | 6.0 | 0.00 | 0.09 | 0.09 | 81 | 1014.3 |
| 20260505185225 | 52 | 249 | 1.0 | 5.0 | 0.00 | 0.09 | 0.09 | 80 | 1014.3 |
| 20260505185003 | 52 | 249 | 1.0 | 5.0 | 0.00 | 0.09 | 0.09 | 78 | 1014.3 |
| 20260505184804 | 52 | 274 | 0.0 | 3.0 | 0.00 | 0.09 | 0.09 | 81 | 1014.3 |
| 20260505184603 | 51 | 277 | 0.0 | 2.0 | 0.00 | 0.09 | 0.09 | 81 | 1014.3 |
| 20260505184404 | 51 | 279 | 0.0 | 3.0 | 0.00 | 0.09 | 0.09 | 84 | 1014.3 |
| 20260505184205 | 50 | 284 | 0.0 | 3.0 | 0.00 | 0.09 | 0.09 | 81 | 1014.3 |
| 20260505184025 | 50 | 269 | 1.0 | 3.0 | 0.00 | 0.09 | 0.09 | 80 | 1014.4 |
| 20260505183803 | 50 | 230 | 1.0 | 3.0 | 0.00 | 0.09 | 0.09 | 79 | 1014.3 |
| 20260505183625 | 51 | 262 | 1.0 | 3.0 | 0.00 | 0.09 | 0.09 | 79 | 1014.3 |
| 20260505183424 | 51 | 245 | 1.0 | 3.0 | 0.00 | 0.09 | 0.09 | 81 | 1014.4 |
| 20260505183225 | 51 | 202 | 1.0 | 3.0 | 0.00 | 0.09 | 0.09 | 82 | 1014.4 |
| 20260505183004 | 50 | 282 | 0.0 | 3.0 | 0.00 | 0.09 | 0.09 | 83 | 1014.3 |
| 20260505182825 | 50 | 304 | 0.0 | 3.0 | 0.00 | 0.09 | 0.09 | 83 | 1014.3 |
| 20260505182604 | 50 | 0 | 0.0 | 0.0 | 0.00 | 0.09 | 0.09 | 84 | 1014.3 |
| 20260505182404 | 50 | 0 | 0.0 | 0.0 | 0.00 | 0.09 | 0.09 | 84 | 1014.3 |
| 20260505182204 | 50 | 0 | 0.0 | 0.0 | 0.00 | 0.09 | 0.09 | 84 | 1014.3 |
| 20260505182004 | 49 | 270 | 0.0 | 3.0 | 0.00 | 0.09 | 0.09 | 84 | 1014.3 |
| 20260505181803 | 49 | 277 | 1.0 | 4.0 | 0.00 | 0.09 | 0.09 | 86 | 1014.3 |
| 20260505181603 | 49 | 279 | 1.0 | 4.0 | 0.00 | 0.09 | 0.09 | 86 | 1014.3 |
| 20260505181404 | 48 | 280 | 1.0 | 4.0 | 0.00 | 0.09 | 0.09 | 86 | 1014.3 |
| 20260505181204 | 48 | 280 | 2.0 | 4.0 | 0.00 | 0.09 | 0.09 | 85 | 1014.3 |
| 20260505181025 | 49 | 285 | 2.0 | 5.0 | 0.00 | 0.09 | 0.09 | 86 | 1014.3 |
| 20260505180804 | 48 | 285 | 1.0 | 5.0 | 0.00 | 0.09 | 0.09 | 86 | 1014.3 |
| 20260505180604 | 49 | 291 | 1.0 | 5.0 | 0.00 | 0.09 | 0.09 | 88 | 1014.3 |
| 20260505180404 | 49 | 299 | 1.0 | 5.0 | 0.00 | 0.09 | 0.09 | 88 | 1014.3 |
| 20260505180204 | 49 | 308 | 1.0 | 5.0 | 0.00 | 0.09 | 0.09 | 89 | 1014.2 |
| 20260505180004 | 49 | 312 | 1.0 | 4.0 | 0.00 | 0.09 | 0.09 | 90 | 1014.3 |
| 20260505175803 | 49 | 312 | 1.0 | 4.0 | 0.00 | 0.09 | 0.09 | 89 | 1014.2 |
| 20260505175604 | 49 | 311 | 1.0 | 4.0 | 0.00 | 0.09 | 0.09 | 89 | 1014.3 |
| 20260505175425 | 49 | 306 | 1.0 | 4.0 | 0.00 | 0.09 | 0.09 | 89 | 1014.2 |
| 20260505175225 | 49 | 299 | 0.0 | 4.0 | 0.00 | 0.09 | 0.09 | 89 | 1014.1 |
| 20260505175003 | 49 | 0 | 0.0 | 0.0 | 0.00 | 0.09 | 0.09 | 89 | 1014.1 |
| 20260505174803 | 49 | 0 | 0.0 | 0.0 | 0.00 | 0.09 | 0.09 | 87 | 1014.0 |
| 20260505174604 | 49 | 0 | 0.0 | 0.0 | 0.00 | 0.09 | 0.09 | 87 | 1014.0 |
| 20260505174404 | 49 | 0 | 0.0 | 0.0 | 0.00 | 0.09 | 0.09 | 86 | 1014.0 |
| 20260505174225 | 49 | 0 | 0.0 | 0.0 | 0.00 | 0.09 | 0.09 | 86 | 1014.0 |
| 20260505174004 | 49 | 289 | 0.0 | 2.0 | 0.00 | 0.09 | 0.09 | 88 | 1014.0 |
| 20260505173803 | 48 | 293 | 0.0 | 2.0 | 0.00 | 0.09 | 0.09 | 89 | 1013.9 |
| 20260505173603 | 48 | 303 | 1.0 | 3.0 | 0.00 | 0.09 | 0.09 | 89 | 1013.9 |
| 20260505173404 | 48 | 303 | 1.0 | 3.0 | 0.00 | 0.09 | 0.09 | 88 | 1013.9 |
| 20260505173203 | 48 | 303 | 1.0 | 3.0 | 0.00 | 0.09 | 0.09 | 88 | 1013.8 |
| 20260505173004 | 48 | 306 | 0.0 | 3.0 | 0.00 | 0.09 | 0.09 | 90 | 1013.9 |
| 20260505172804 | 48 | 325 | 0.0 | 3.0 | 0.00 | 0.09 | 0.09 | 90 | 1013.9 |
| 20260505172604 | 48 | 291 | 0.0 | 3.0 | 0.00 | 0.09 | 0.09 | 91 | 1013.9 |
| 20260505172404 | 47 | 291 | 0.0 | 3.0 | 0.00 | 0.09 | 0.09 | 91 | 1013.9 |
| 20260505172203 | 47 | 292 | 1.0 | 4.0 | 0.00 | 0.09 | 0.09 | 91 | 1013.8 |
| 20260505172004 | 47 | 291 | 1.0 | 4.0 | 0.00 | 0.09 | 0.09 | 91 | 1013.8 |
| 20260505171804 | 47 | 293 | 1.0 | 6.0 | 0.00 | 0.09 | 0.09 | 91 | 1013.8 |
| 20260505171604 | 47 | 293 | 1.0 | 6.0 | 0.00 | 0.09 | 0.09 | 91 | 1013.8 |
| 20260505171404 | 47 | 293 | 1.0 | 6.0 | 0.00 | 0.09 | 0.09 | 92 | 1013.8 |
| 20260505171224 | 47 | 293 | 1.0 | 6.0 | 0.00 | 0.09 | 0.09 | 92 | 1013.8 |
| 20260505171003 | 47 | 288 | 1.0 | 6.0 | 0.00 | 0.09 | 0.09 | 92 | 1013.7 |
| 20260505170803 | 47 | 279 | 0.0 | 3.0 | 0.00 | 0.09 | 0.09 | 93 | 1013.6 |
| 20260505170604 | 47 | 279 | 0.0 | 3.0 | 0.00 | 0.09 | 0.09 | 93 | 1013.6 |
| 20260505170425 | 47 | 279 | 0.0 | 3.0 | 0.00 | 0.09 | 0.09 | 93 | 1013.7 |
| 20260505170204 | 47 | 280 | 0.0 | 3.0 | 0.00 | 0.09 | 0.09 | 93 | 1013.7 |
| 20260505170025 | 47 | 288 | 0.0 | 3.0 | 0.00 | 0.09 | 0.09 | 93 | 1013.6 |
| 20260505165804 | 47 | 299 | 0.0 | 3.0 | 0.00 | 0.09 | 0.09 | 94 | 1013.6 |
| 20260505165604 | 47 | 300 | 0.0 | 3.0 | 0.00 | 0.09 | 0.09 | 94 | 1013.6 |
| 20260505165424 | 47 | 300 | 0.0 | 3.0 | 0.00 | 0.09 | 0.09 | 94 | 1013.5 |
| 20260505165204 | 47 | 300 | 0.0 | 3.0 | 0.00 | 0.09 | 0.09 | 94 | 1013.5 |
| 20260505165004 | 47 | 300 | 0.0 | 3.0 | 0.00 | 0.09 | 0.09 | 94 | 1013.5 |
| 20260505164825 | 47 | 0 | 0.0 | 0.0 | 0.00 | 0.09 | 0.09 | 94 | 1013.5 |
| 20260505164603 | 47 | 0 | 0.0 | 0.0 | 0.00 | 0.09 | 0.09 | 94 | 1013.5 |
| 20260505164403 | 47 | 0 | 0.0 | 0.0 | 0.00 | 0.09 | 0.09 | 94 | 1013.4 |
| 20260505164204 | 47 | 0 | 0.0 | 0.0 | 0.00 | 0.09 | 0.09 | 94 | 1013.4 |
| 20260505164004 | 47 | 0 | 0.0 | 0.0 | 0.00 | 0.09 | 0.09 | 95 | 1013.4 |
| 20260505163804 | 46 | 0 | 0.0 | 0.0 | 0.00 | 0.09 | 0.09 | 95 | 1013.4 |
| 20260505163624 | 46 | 0 | 0.0 | 0.0 | 0.00 | 0.09 | 0.09 | 95 | 1013.4 |
| 20260505163403 | 46 | 0 | 0.0 | 0.0 | 0.00 | 0.09 | 0.09 | 95 | 1013.4 |
| 20260505163204 | 46 | 0 | 0.0 | 0.0 | 0.00 | 0.09 | 0.09 | 95 | 1013.4 |
| 20260505163003 | 46 | 250 | 0.0 | 3.0 | 0.00 | 0.09 | 0.09 | 95 | 1013.4 |
| 20260505162803 | 46 | 250 | 0.0 | 3.0 | 0.00 | 0.09 | 0.09 | 95 | 1013.3 |
| 20260505162625 | 46 | 250 | 0.0 | 3.0 | 0.00 | 0.09 | 0.09 | 95 | 1013.3 |
| 20260505162404 | 46 | 250 | 0.0 | 3.0 | 0.00 | 0.09 | 0.09 | 95 | 1013.3 |
| 20260505162225 | 46 | 250 | 0.0 | 3.0 | 0.00 | 0.09 | 0.09 | 95 | 1013.3 |
| 20260505162003 | 46 | 0 | 0.0 | 0.0 | 0.00 | 0.09 | 0.09 | 95 | 1013.3 |
| 20260505161804 | 46 | 0 | 0.0 | 0.0 | 0.00 | 0.09 | 0.09 | 95 | 1013.3 |
| 20260505161604 | 46 | 0 | 0.0 | 0.0 | 0.00 | 0.09 | 0.09 | 95 | 1013.3 |
| 20260505161403 | 46 | 0 | 0.0 | 0.0 | 0.00 | 0.09 | 0.09 | 95 | 1013.3 |
| 20260505161204 | 46 | 283 | 0.0 | 2.0 | 0.00 | 0.09 | 0.09 | 95 | 1013.2 |
| 20260505161024 | 46 | 283 | 0.0 | 2.0 | 0.00 | 0.09 | 0.09 | 95 | 1013.2 |
| 20260505160803 | 46 | 283 | 0.0 | 2.0 | 0.00 | 0.09 | 0.09 | 95 | 1013.2 |
| 20260505160604 | 46 | 283 | 0.0 | 2.0 | 0.00 | 0.09 | 0.09 | 95 | 1013.1 |
| 20260505160403 | 46 | 287 | 0.0 | 2.0 | 0.00 | 0.09 | 0.09 | 95 | 1013.0 |
| 20260505160204 | 46 | 288 | 0.0 | 2.0 | 0.00 | 0.09 | 0.09 | 95 | 1013.0 |
| 20260505153204 | 46 | 0 | 0.0 | 0.0 | 0.03 | 0.09 | 0.09 | 96 | 1012.7 |
| 20260505153024 | 46 | 0 | 0.0 | 0.0 | 0.03 | 0.09 | 0.09 | 96 | 1012.8 |
| 20260505152804 | 46 | 0 | 0.0 | 0.0 | 0.04 | 0.09 | 0.09 | 96 | 1012.8 |
| 20260505152625 | 46 | 0 | 0.0 | 0.0 | 0.04 | 0.09 | 0.09 | 96 | 1012.8 |
| 20260505152404 | 46 | 0 | 0.0 | 0.0 | 0.05 | 0.09 | 0.09 | 96 | 1012.8 |
| 20260505152225 | 46 | 0 | 0.0 | 0.0 | 0.05 | 0.09 | 0.09 | 96 | 1012.7 |
| 20260505152004 | 46 | 0 | 0.0 | 0.0 | 0.06 | 0.09 | 0.09 | 96 | 1012.7 |
| 20260505151804 | 46 | 0 | 0.0 | 0.0 | 0.06 | 0.09 | 0.09 | 96 | 1012.7 |
| 20260505151603 | 46 | 0 | 0.0 | 0.0 | 0.06 | 0.09 | 0.09 | 96 | 1012.7 |
| 20260505151403 | 45 | 0 | 0.0 | 0.0 | 0.06 | 0.09 | 0.09 | 96 | 1012.7 |
| 20260505151203 | 45 | 0 | 0.0 | 0.0 | 0.06 | 0.09 | 0.09 | 96 | 1012.7 |
| 20260505151003 | 45 | 0 | 0.0 | 0.0 | 0.06 | 0.09 | 0.09 | 96 | 1012.7 |
| 20260505150804 | 46 | 0 | 0.0 | 0.0 | 0.06 | 0.09 | 0.09 | 96 | 1012.7 |
| 20260505150603 | 46 | 0 | 0.0 | 0.0 | 0.06 | 0.09 | 0.09 | 96 | 1012.6 |
| 20260505150403 | 46 | 0 | 0.0 | 0.0 | 0.06 | 0.09 | 0.09 | 96 | 1012.6 |
| 20260505150203 | 45 | 0 | 0.0 | 0.0 | 0.06 | 0.09 | 0.09 | 96 | 1012.6 |
| 20260505140604 | 46 | 285 | 0.0 | 2.0 | 0.00 | 0.02 | 0.02 | 96 | 1012.2 |
| 20260505140403 | 46 | 280 | 0.0 | 3.0 | 0.00 | 0.02 | 0.02 | 96 | 1012.2 |
| 20260505140203 | 46 | 281 | 0.0 | 3.0 | 0.00 | 0.02 | 0.02 | 96 | 1012.2 |
| 20260505130204 | 45 | 0 | 0.0 | 0.0 | 0.00 | 0.02 | 0.02 | 96 | 1011.8 |
| 20260505125024 | 45 | 0 | 0.0 | 0.0 | 0.00 | 0.02 | 0.02 | 96 | 1011.9 |
| 20260505124803 | 45 | 0 | 0.0 | 0.0 | 0.00 | 0.02 | 0.02 | 96 | 1011.9 |
| 20260505124604 | 45 | 0 | 0.0 | 0.0 | 0.00 | 0.02 | 0.02 | 96 | 1011.9 |
| 20260505124404 | 45 | 0 | 0.0 | 0.0 | 0.00 | 0.02 | 0.02 | 96 | 1011.8 |
| 20260505124204 | 45 | 0 | 0.0 | 0.0 | 0.00 | 0.02 | 0.02 | 96 | 1011.9 |
| 20260505124024 | 45 | 0 | 0.0 | 0.0 | 0.00 | 0.02 | 0.02 | 96 | 1011.9 |
| 20260505123804 | 45 | 0 | 0.0 | 0.0 | 0.00 | 0.02 | 0.02 | 96 | 1011.9 |
| 20260505123603 | 45 | 0 | 0.0 | 0.0 | 0.00 | 0.02 | 0.02 | 96 | 1012.0 |
| 20260505123403 | 45 | 0 | 0.0 | 0.0 | 0.00 | 0.02 | 0.02 | 96 | 1011.9 |
| 20260505123203 | 44 | 0 | 0.0 | 0.0 | 0.00 | 0.02 | 0.02 | 96 | 1012.0 |
| 20260505123004 | 44 | 0 | 0.0 | 0.0 | 0.00 | 0.02 | 0.02 | 96 | 1012.0 |
| 20260505122804 | 44 | 0 | 0.0 | 0.0 | 0.00 | 0.02 | 0.02 | 96 | 1012.0 |
| 20260505122625 | 44 | 0 | 0.0 | 0.0 | 0.00 | 0.02 | 0.02 | 96 | 1012.0 |
| 20260505122403 | 44 | 0 | 0.0 | 0.0 | 0.00 | 0.02 | 0.02 | 96 | 1011.9 |
| 20260505122204 | 44 | 0 | 0.0 | 0.0 | 0.00 | 0.02 | 0.02 | 96 | 1011.9 |
| 20260505122004 | 44 | 0 | 0.0 | 0.0 | 0.00 | 0.02 | 0.02 | 96 | 1011.9 |
| 20260505121803 | 44 | 0 | 0.0 | 0.0 | 0.00 | 0.02 | 0.02 | 96 | 1011.9 |
| 20260505121604 | 44 | 0 | 0.0 | 0.0 | 0.00 | 0.02 | 0.02 | 96 | 1011.9 |
| 20260505121403 | 44 | 0 | 0.0 | 0.0 | 0.00 | 0.02 | 0.02 | 96 | 1011.9 |
| 20260505121225 | 44 | 0 | 0.0 | 0.0 | 0.00 | 0.02 | 0.02 | 95 | 1011.9 |
| 20260505121003 | 44 | 0 | 0.0 | 0.0 | 0.00 | 0.02 | 0.02 | 95 | 1011.8 |
| 20260505120804 | 44 | 0 | 0.0 | 0.0 | 0.00 | 0.02 | 0.02 | 95 | 1011.8 |
| 20260505120603 | 44 | 0 | 0.0 | 0.0 | 0.00 | 0.02 | 0.02 | 95 | 1011.8 |
| 20260505120404 | 44 | 0 | 0.0 | 0.0 | 0.00 | 0.02 | 0.02 | 95 | 1011.9 |
| 20260505120204 | 44 | 0 | 0.0 | 0.0 | 0.00 | 0.02 | 0.02 | 95 | 1011.8 |
| 20260505120004 | 44 | 0 | 0.0 | 0.0 | 0.00 | 0.02 | 0.02 | 95 | 1011.8 |
| 20260505115803 | 44 | 0 | 0.0 | 0.0 | 0.00 | 0.02 | 0.02 | 96 | 1011.8 |
| 20260505115603 | 44 | 0 | 0.0 | 0.0 | 0.00 | 0.02 | 0.02 | 96 | 1011.7 |
| 20260505115404 | 44 | 0 | 0.0 | 0.0 | 0.00 | 0.02 | 0.02 | 96 | 1011.7 |
| 20260505115203 | 44 | 0 | 0.0 | 0.0 | 0.00 | 0.02 | 0.02 | 95 | 1011.8 |
| 20260505115003 | 44 | 0 | 0.0 | 0.0 | 0.00 | 0.02 | 0.02 | 95 | 1011.8 |
| 20260505114804 | 44 | 0 | 0.0 | 0.0 | 0.00 | 0.02 | 0.02 | 95 | 1011.8 |
| 20260505114603 | 44 | 95 | 0.0 | 2.0 | 0.00 | 0.02 | 0.02 | 95 | 1011.9 |
| 20260505114403 | 44 | 98 | 0.0 | 2.0 | 0.00 | 0.02 | 0.02 | 95 | 1011.9 |
| 20260505114204 | 45 | 98 | 0.0 | 2.0 | 0.00 | 0.02 | 0.02 | 95 | 1011.9 |
| 20260505114003 | 45 | 75 | 0.0 | 2.0 | 0.00 | 0.02 | 0.02 | 96 | 1011.9 |
| 20260505113803 | 45 | 75 | 0.0 | 2.0 | 0.00 | 0.02 | 0.02 | 96 | 1011.9 |
| 20260505113603 | 45 | 59 | 0.0 | 2.0 | 0.00 | 0.02 | 0.02 | 96 | 1011.8 |
| 20260505113404 | 45 | 56 | 0.0 | 2.0 | 0.00 | 0.02 | 0.02 | 96 | 1011.8 |
| 20260505113204 | 45 | 56 | 0.0 | 2.0 | 0.00 | 0.02 | 0.02 | 96 | 1011.9 |
| 20260505113004 | 45 | 65 | 0.0 | 2.0 | 0.00 | 0.02 | 0.02 | 96 | 1011.9 |
| 20260505112803 | 45 | 46 | 0.0 | 2.0 | 0.00 | 0.02 | 0.02 | 96 | 1011.9 |
| 20260505112625 | 45 | 47 | 0.0 | 2.0 | 0.00 | 0.02 | 0.02 | 96 | 1011.8 |
| 20260505112404 | 45 | 0 | 0.0 | 0.0 | 0.00 | 0.02 | 0.02 | 96 | 1011.8 |
| 20260505112203 | 45 | 0 | 0.0 | 0.0 | 0.00 | 0.02 | 0.02 | 96 | 1011.8 |
| 20260505112004 | 45 | 0 | 0.0 | 0.0 | 0.00 | 0.02 | 0.02 | 96 | 1011.9 |
| 20260505111804 | 45 | 0 | 0.0 | 0.0 | 0.00 | 0.02 | 0.02 | 96 | 1012.0 |
| 20260505111604 | 45 | 0 | 0.0 | 0.0 | 0.00 | 0.02 | 0.02 | 96 | 1012.0 |
| 20260505111404 | 45 | 0 | 0.0 | 0.0 | 0.00 | 0.02 | 0.02 | 96 | 1012.0 |
| 20260505111204 | 45 | 0 | 0.0 | 0.0 | 0.00 | 0.02 | 0.02 | 96 | 1012.0 |
| 20260505111003 | 45 | 0 | 0.0 | 0.0 | 0.00 | 0.02 | 0.02 | 96 | 1012.0 |
| 20260505110804 | 45 | 0 | 0.0 | 0.0 | 0.00 | 0.02 | 0.02 | 96 | 1012.0 |
| 20260505110603 | 45 | 0 | 0.0 | 0.0 | 0.00 | 0.02 | 0.02 | 96 | 1012.0 |
| 20260505110403 | 45 | 0 | 0.0 | 0.0 | 0.00 | 0.02 | 0.02 | 96 | 1012.1 |
| 20260505110204 | 45 | 0 | 0.0 | 0.0 | 0.00 | 0.02 | 0.02 | 95 | 1012.1 |
| 20260505102204 | 45 | 297 | 0.0 | 2.0 | 0.00 | 0.02 | 0.02 | 95 | 1011.9 |
| 20260505102004 | 46 | 297 | 0.0 | 2.0 | 0.00 | 0.02 | 0.02 | 96 | 1011.9 |
| 20260505101804 | 46 | 297 | 0.0 | 2.0 | 0.00 | 0.02 | 0.02 | 96 | 1011.8 |
| 20260505101604 | 46 | 297 | 0.0 | 2.0 | 0.00 | 0.02 | 0.02 | 96 | 1011.9 |
| 20260505101403 | 46 | 0 | 0.0 | 0.0 | 0.00 | 0.02 | 0.02 | 96 | 1011.9 |
| 20260505101224 | 46 | 0 | 0.0 | 0.0 | 0.00 | 0.02 | 0.02 | 96 | 1011.9 |
| 20260505101003 | 46 | 0 | 0.0 | 0.0 | 0.00 | 0.02 | 0.02 | 96 | 1011.9 |
| 20260505100804 | 46 | 0 | 0.0 | 0.0 | 0.00 | 0.02 | 0.02 | 96 | 1011.9 |
| 20260505100603 | 46 | 0 | 0.0 | 0.0 | 0.00 | 0.02 | 0.02 | 96 | 1011.9 |
| 20260505100424 | 46 | 0 | 0.0 | 0.0 | 0.00 | 0.02 | 0.02 | 96 | 1012.0 |
| 20260505100204 | 46 | 0 | 0.0 | 0.0 | 0.00 | 0.02 | 0.02 | 96 | 1012.0 |
| 20260505100004 | 46 | 0 | 0.0 | 0.0 | 0.00 | 0.02 | 0.02 | 96 | 1012.0 |
| 20260505095803 | 46 | 0 | 0.0 | 0.0 | 0.00 | 0.02 | 0.02 | 96 | 1012.0 |
| 20260505095603 | 46 | 0 | 0.0 | 0.0 | 0.00 | 0.02 | 0.02 | 96 | 1012.0 |
| 20260505095404 | 46 | 0 | 0.0 | 0.0 | 0.00 | 0.02 | 0.02 | 96 | 1012.1 |
| 20260505095204 | 46 | 0 | 0.0 | 0.0 | 0.00 | 0.02 | 0.02 | 96 | 1012.1 |
| 20260505095003 | 46 | 0 | 0.0 | 0.0 | 0.00 | 0.02 | 0.02 | 96 | 1012.1 |
| 20260505094824 | 46 | 0 | 0.0 | 0.0 | 0.00 | 0.02 | 0.02 | 96 | 1012.1 |
| 20260505094624 | 46 | 0 | 0.0 | 0.0 | 0.00 | 0.02 | 0.02 | 95 | 1012.1 |
| 20260505094404 | 46 | 0 | 0.0 | 0.0 | 0.00 | 0.02 | 0.02 | 95 | 1012.2 |
| 20260505094203 | 46 | 0 | 0.0 | 0.0 | 0.00 | 0.02 | 0.02 | 95 | 1012.2 |
| 20260505094004 | 46 | 0 | 0.0 | 0.0 | 0.00 | 0.02 | 0.02 | 95 | 1012.2 |
| 20260505093825 | 46 | 0 | 0.0 | 0.0 | 0.01 | 0.02 | 0.02 | 95 | 1012.2 |
| 20260505093604 | 46 | 0 | 0.0 | 0.0 | 0.01 | 0.02 | 0.02 | 95 | 1012.2 |
| 20260505093404 | 46 | 0 | 0.0 | 0.0 | 0.01 | 0.02 | 0.02 | 95 | 1012.2 |
| 20260505093203 | 46 | 0 | 0.0 | 0.0 | 0.01 | 0.02 | 0.02 | 95 | 1012.2 |
| 20260505093004 | 46 | 0 | 0.0 | 0.0 | 0.01 | 0.02 | 0.02 | 95 | 1012.3 |
| 20260505092803 | 46 | 0 | 0.0 | 0.0 | 0.01 | 0.02 | 0.02 | 95 | 1012.4 |
| 20260505092604 | 46 | 0 | 0.0 | 0.0 | 0.01 | 0.02 | 0.02 | 95 | 1012.4 |
| 20260505092403 | 46 | 0 | 0.0 | 0.0 | 0.01 | 0.02 | 0.02 | 95 | 1012.4 |
| 20260505092224 | 46 | 0 | 0.0 | 0.0 | 0.01 | 0.02 | 0.02 | 95 | 1012.4 |
| 20260505092025 | 46 | 0 | 0.0 | 0.0 | 0.01 | 0.02 | 0.02 | 95 | 1012.4 |
| 20260505091825 | 46 | 0 | 0.0 | 0.0 | 0.01 | 0.02 | 0.02 | 95 | 1012.4 |
| 20260505091603 | 46 | 0 | 0.0 | 0.0 | 0.01 | 0.02 | 0.02 | 95 | 1012.4 |
| 20260505091425 | 46 | 0 | 0.0 | 0.0 | 0.01 | 0.02 | 0.02 | 95 | 1012.5 |
| 20260505091204 | 46 | 0 | 0.0 | 0.0 | 0.01 | 0.02 | 0.02 | 95 | 1012.6 |
| 20260505091004 | 46 | 0 | 0.0 | 0.0 | 0.01 | 0.02 | 0.02 | 95 | 1012.5 |
| 20260505090803 | 46 | 0 | 0.0 | 0.0 | 0.02 | 0.02 | 0.02 | 95 | 1012.6 |
| 20260505090603 | 46 | 0 | 0.0 | 0.0 | 0.02 | 0.02 | 0.02 | 95 | 1012.6 |
| 20260505090404 | 46 | 0 | 0.0 | 0.0 | 0.02 | 0.02 | 0.02 | 95 | 1012.7 |
| 20260505090203 | 46 | 0 | 0.0 | 0.0 | 0.02 | 0.02 | 0.02 | 95 | 1012.7 |
| 20260505090004 | 46 | 0 | 0.0 | 0.0 | 0.02 | 0.02 | 0.02 | 95 | 1012.7 |
| 20260505085803 | 46 | 0 | 0.0 | 0.0 | 0.02 | 0.02 | 0.02 | 95 | 1012.7 |
| 20260505085604 | 46 | 0 | 0.0 | 0.0 | 0.02 | 0.02 | 0.02 | 95 | 1012.7 |
| 20260505085404 | 46 | 0 | 0.0 | 0.0 | 0.02 | 0.02 | 0.02 | 95 | 1012.7 |
| 20260505085203 | 46 | 0 | 0.0 | 0.0 | 0.02 | 0.02 | 0.02 | 95 | 1012.7 |
| 20260505085004 | 46 | 0 | 0.0 | 0.0 | 0.02 | 0.02 | 0.02 | 95 | 1012.6 |
| 20260505084803 | 46 | 0 | 0.0 | 0.0 | 0.02 | 0.02 | 0.02 | 95 | 1012.6 |
| 20260505084603 | 46 | 0 | 0.0 | 0.0 | 0.02 | 0.02 | 0.02 | 95 | 1012.6 |
| 20260505084403 | 46 | 0 | 0.0 | 0.0 | 0.02 | 0.02 | 0.02 | 95 | 1012.8 |
| 20260505084203 | 46 | 0 | 0.0 | 0.0 | 0.02 | 0.02 | 0.02 | 95 | 1012.8 |
| 20260505084003 | 46 | 0 | 0.0 | 0.0 | 0.02 | 0.02 | 0.02 | 95 | 1012.8 |
| 20260505083825 | 46 | 0 | 0.0 | 0.0 | 0.02 | 0.02 | 0.02 | 95 | 1012.9 |
| 20260505083604 | 46 | 0 | 0.0 | 0.0 | 0.02 | 0.02 | 0.02 | 94 | 1013.0 |
| 20260505083403 | 46 | 0 | 0.0 | 0.0 | 0.02 | 0.02 | 0.02 | 94 | 1013.1 |
| 20260505083203 | 46 | 0 | 0.0 | 0.0 | 0.02 | 0.02 | 0.02 | 94 | 1013.1 |
| 20260505083005 | 46 | 0 | 0.0 | 0.0 | 0.02 | 0.02 | 0.02 | 94 | 1013.0 |
| 20260505082804 | 46 | 0 | 0.0 | 0.0 | 0.02 | 0.02 | 0.02 | 94 | 1013.1 |
| 20260505082603 | 46 | 0 | 0.0 | 0.0 | 0.02 | 0.02 | 0.02 | 94 | 1013.1 |
| 20260505082403 | 46 | 0 | 0.0 | 0.0 | 0.02 | 0.02 | 0.02 | 94 | 1013.1 |
| 20260505082204 | 46 | 0 | 0.0 | 0.0 | 0.02 | 0.02 | 0.02 | 94 | 1013.1 |
| 20260505082004 | 46 | 0 | 0.0 | 0.0 | 0.02 | 0.02 | 0.02 | 94 | 1013.2 |
| 20260505081804 | 46 | 0 | 0.0 | 0.0 | 0.02 | 0.02 | 0.02 | 94 | 1013.2 |
| 20260505081604 | 46 | 0 | 0.0 | 0.0 | 0.02 | 0.02 | 0.02 | 94 | 1013.2 |
| 20260505081404 | 46 | 0 | 0.0 | 0.0 | 0.02 | 0.02 | 0.02 | 94 | 1013.2 |
| 20260505081203 | 46 | 0 | 0.0 | 0.0 | 0.02 | 0.02 | 0.02 | 94 | 1013.3 |
| 20260505081004 | 46 | 0 | 0.0 | 0.0 | 0.02 | 0.02 | 0.02 | 94 | 1013.3 |
| 20260505080803 | 46 | 0 | 0.0 | 0.0 | 0.01 | 0.01 | 0.01 | 93 | 1013.3 |
| 20260505080603 | 46 | 0 | 0.0 | 0.0 | 0.01 | 0.01 | 0.01 | 93 | 1013.3 |
| 20260505080403 | 46 | 0 | 0.0 | 0.0 | 0.01 | 0.01 | 0.01 | 93 | 1013.3 |
| 20260505080204 | 46 | 0 | 0.0 | 0.0 | 0.01 | 0.01 | 0.01 | 93 | 1013.3 |
| 20260505080025 | 46 | 0 | 0.0 | 0.0 | 0.01 | 0.01 | 0.01 | 93 | 1013.4 |
| 20260505075804 | 46 | 0 | 0.0 | 0.0 | 0.01 | 0.01 | 0.01 | 93 | 1013.4 |
| 20260505075603 | 46 | 0 | 0.0 | 0.0 | 0.01 | 0.01 | 0.01 | 93 | 1013.4 |
| 20260505075425 | 46 | 0 | 0.0 | 0.0 | 0.01 | 0.01 | 0.01 | 93 | 1013.4 |
| 20260505075225 | 46 | 0 | 0.0 | 0.0 | 0.01 | 0.01 | 0.01 | 93 | 1013.4 |
| 20260505075003 | 46 | 0 | 0.0 | 0.0 | 0.01 | 0.01 | 0.01 | 92 | 1013.4 |
| 20260505074804 | 46 | 0 | 0.0 | 0.0 | 0.01 | 0.01 | 0.01 | 92 | 1013.4 |
| 20260505074603 | 46 | 0 | 0.0 | 0.0 | 0.01 | 0.01 | 0.01 | 92 | 1013.4 |
| 20260505074404 | 47 | 0 | 0.0 | 0.0 | 0.01 | 0.01 | 0.01 | 92 | 1013.4 |
| 20260505074224 | 47 | 0 | 0.0 | 0.0 | 0.01 | 0.01 | 0.01 | 92 | 1013.4 |
| 20260505074003 | 47 | 0 | 0.0 | 0.0 | 0.00 | 0.00 | 0.00 | 92 | 1013.4 |
| 20260505073825 | 47 | 0 | 0.0 | 0.0 | 0.00 | 0.00 | 0.00 | 92 | 1013.4 |
| 20260505073603 | 47 | 0 | 0.0 | 0.0 | 0.00 | 0.00 | 0.00 | 92 | 1013.4 |
| 20260505073404 | 47 | 0 | 0.0 | 0.0 | 0.00 | 0.00 | 0.00 | 92 | 1013.4 |
| 20260505073203 | 47 | 0 | 0.0 | 0.0 | 0.00 | 0.00 | 0.00 | 92 | 1013.4 |
| 20260505073025 | 47 | 299 | 0.0 | 3.0 | 0.00 | 0.00 | 0.00 | 91 | 1013.4 |
| 20260505072825 | 47 | 299 | 0.0 | 4.0 | 0.00 | 0.00 | 0.00 | 91 | 1013.5 |
| 20260505072603 | 47 | 299 | 0.0 | 4.0 | 0.00 | 0.00 | 0.00 | 91 | 1013.5 |
| 20260505072403 | 47 | 299 | 0.0 | 4.0 | 0.00 | 0.00 | 0.00 | 91 | 1013.5 |
| 20260505072204 | 47 | 299 | 0.0 | 4.0 | 0.00 | 0.00 | 0.00 | 91 | 1013.5 |
| 20260505072004 | 47 | 305 | 0.0 | 4.0 | 0.00 | 0.00 | 0.00 | 91 | 1013.5 |
| 20260505071803 | 47 | 0 | 0.0 | 0.0 | 0.00 | 0.00 | 0.00 | 90 | 1013.5 |
| 20260505071603 | 47 | 291 | 0.0 | 4.0 | 0.00 | 0.00 | 0.00 | 90 | 1013.4 |
| 20260505071404 | 47 | 288 | 1.0 | 4.0 | 0.00 | 0.00 | 0.00 | 90 | 1013.4 |
| 20260505071203 | 47 | 290 | 1.0 | 4.0 | 0.00 | 0.00 | 0.00 | 90 | 1013.4 |
| 20260505071004 | 47 | 292 | 1.0 | 5.0 | 0.00 | 0.00 | 0.00 | 90 | 1013.4 |
| 20260505070803 | 47 | 292 | 1.0 | 5.0 | 0.00 | 0.00 | 0.00 | 90 | 1013.5 |
| 20260505070603 | 47 | 290 | 1.0 | 5.0 | 0.00 | 0.00 | 0.00 | 90 | 1013.5 |
| 20260505070403 | 47 | 294 | 0.0 | 5.0 | 0.00 | 0.00 | 0.00 | 90 | 1013.5 |
| 20260505070204 | 47 | 293 | 0.0 | 5.0 | 0.00 | 0.00 | 0.00 | 90 | 1013.4 |
| 20260505070025 | 47 | 286 | 0.0 | 3.0 | 0.00 | 0.00 | 0.00 | 91 | 1013.5 |
| 20260505065803 | 47 | 287 | 0.0 | 4.0 | 0.00 | 0.00 | 0.00 | 91 | 1013.5 |
| 20260505065603 | 47 | 289 | 0.0 | 4.0 | 0.00 | 0.00 | 0.00 | 91 | 1013.4 |
| 20260505065404 | 47 | 289 | 0.0 | 4.0 | 0.00 | 0.00 | 0.00 | 90 | 1013.4 |
| 20260505065224 | 47 | 285 | 0.0 | 4.0 | 0.00 | 0.00 | 0.00 | 90 | 1013.4 |
| 20260505065004 | 47 | 281 | 0.0 | 1.0 | 0.00 | 0.00 | 0.00 | 90 | 1013.5 |
| 20260505064803 | 47 | 0 | 0.0 | 0.0 | 0.00 | 0.00 | 0.00 | 90 | 1013.5 |
| 20260505064624 | 47 | 0 | 0.0 | 0.0 | 0.00 | 0.00 | 0.00 | 90 | 1013.5 |
| 20260505064404 | 47 | 0 | 0.0 | 0.0 | 0.00 | 0.00 | 0.00 | 90 | 1013.5 |
| 20260505064203 | 47 | 0 | 0.0 | 0.0 | 0.00 | 0.00 | 0.00 | 90 | 1013.5 |
| 20260505064003 | 47 | 0 | 0.0 | 0.0 | 0.00 | 0.00 | 0.00 | 89 | 1013.5 |
| 20260505063803 | 47 | 0 | 0.0 | 0.0 | 0.00 | 0.00 | 0.00 | 89 | 1013.5 |
| 20260505063604 | 47 | 0 | 0.0 | 0.0 | 0.00 | 0.00 | 0.00 | 89 | 1013.5 |
| 20260505063404 | 47 | 0 | 0.0 | 0.0 | 0.00 | 0.00 | 0.00 | 89 | 1013.5 |
| 20260505063204 | 47 | 0 | 0.0 | 0.0 | 0.00 | 0.00 | 0.00 | 88 | 1013.5 |
| 20260505063004 | 47 | 0 | 0.0 | 0.0 | 0.00 | 0.00 | 0.00 | 88 | 1013.5 |
| 20260505062804 | 47 | 0 | 0.0 | 0.0 | 0.00 | 0.00 | 0.00 | 88 | 1013.6 |
| 20260505062603 | 47 | 0 | 0.0 | 0.0 | 0.00 | 0.00 | 0.00 | 88 | 1013.5 |
| 20260505062403 | 47 | 0 | 0.0 | 0.0 | 0.00 | 0.00 | 0.00 | 88 | 1013.6 |
| 20260505062225 | 47 | 0 | 0.0 | 0.0 | 0.00 | 0.00 | 0.00 | 88 | 1013.6 |
| 20260505062004 | 47 | 0 | 0.0 | 0.0 | 0.00 | 0.00 | 0.00 | 87 | 1013.6 |
| 20260505061803 | 47 | 264 | 0.0 | 1.0 | 0.00 | 0.00 | 0.00 | 87 | 1013.6 |
| 20260505061604 | 47 | 351 | 0.0 | 4.0 | 0.00 | 0.00 | 0.00 | 87 | 1013.7 |
| 20260505061403 | 47 | 351 | 0.0 | 4.0 | 0.00 | 0.00 | 0.00 | 86 | 1013.7 |
| 20260505061225 | 47 | 351 | 0.0 | 4.0 | 0.00 | 0.00 | 0.00 | 86 | 1013.7 |
| 20260505061004 | 48 | 351 | 0.0 | 4.0 | 0.00 | 0.00 | 0.00 | 85 | 1013.7 |
| 20260505060803 | 48 | 334 | 0.0 | 4.0 | 0.00 | 0.00 | 0.00 | 85 | 1013.7 |
| 20260505060624 | 48 | 315 | 0.0 | 4.0 | 0.00 | 0.00 | 0.00 | 85 | 1013.7 |
| 20260505060403 | 48 | 302 | 0.0 | 3.0 | 0.00 | 0.00 | 0.00 | 85 | 1013.7 |
| 20260505060203 | 48 | 297 | 1.0 | 4.0 | 0.00 | 0.00 | 0.00 | 85 | 1013.8 |
| 20260505060003 | 48 | 297 | 1.0 | 4.0 | 0.00 | 0.00 | 0.00 | 84 | 1013.8 |
| 20260505055803 | 48 | 302 | 1.0 | 5.0 | 0.00 | 0.00 | 0.00 | 85 | 1013.7 |
| 20260505055603 | 48 | 302 | 1.0 | 5.0 | 0.00 | 0.00 | 0.00 | 85 | 1013.9 |
| 20260505055403 | 48 | 298 | 2.0 | 5.0 | 0.00 | 0.00 | 0.00 | 85 | 1013.8 |
| 20260505055204 | 48 | 297 | 1.0 | 5.0 | 0.00 | 0.00 | 0.00 | 85 | 1013.9 |
| 20260505055003 | 48 | 297 | 1.0 | 5.0 | 0.00 | 0.00 | 0.00 | 85 | 1013.9 |
| 20260505054803 | 48 | 292 | 1.0 | 4.0 | 0.00 | 0.00 | 0.00 | 85 | 1013.8 |
| 20260505054624 | 48 | 292 | 1.0 | 4.0 | 0.00 | 0.00 | 0.00 | 85 | 1013.8 |
| 20260505054424 | 48 | 295 | 0.0 | 3.0 | 0.00 | 0.00 | 0.00 | 85 | 1013.9 |
| 20260505054203 | 48 | 334 | 0.0 | 2.0 | 0.00 | 0.00 | 0.00 | 85 | 1014.0 |
| 20260505054003 | 48 | 329 | 0.0 | 4.0 | 0.00 | 0.00 | 0.00 | 85 | 1013.9 |
| 20260505053825 | 48 | 325 | 0.0 | 4.0 | 0.00 | 0.00 | 0.00 | 85 | 1014.0 |
| 20260505053603 | 48 | 308 | 1.0 | 5.0 | 0.00 | 0.00 | 0.00 | 85 | 1014.0 |
| 20260505053404 | 48 | 308 | 1.0 | 5.0 | 0.00 | 0.00 | 0.00 | 85 | 1014.0 |
| 20260505053204 | 48 | 308 | 1.0 | 5.0 | 0.00 | 0.00 | 0.00 | 85 | 1014.0 |
| 20260505053004 | 48 | 306 | 1.0 | 5.0 | 0.00 | 0.00 | 0.00 | 85 | 1014.0 |
| 20260505052804 | 48 | 305 | 1.0 | 5.0 | 0.00 | 0.00 | 0.00 | 85 | 1014.0 |
| 20260505052604 | 49 | 312 | 0.0 | 3.0 | 0.00 | 0.00 | 0.00 | 85 | 1014.0 |
| 20260505052425 | 49 | 312 | 0.0 | 3.0 | 0.00 | 0.00 | 0.00 | 85 | 1014.0 |
| 20260505052203 | 49 | 311 | 0.0 | 3.0 | 0.00 | 0.00 | 0.00 | 85 | 1014.0 |
| 20260505052004 | 49 | 314 | 0.0 | 6.0 | 0.00 | 0.00 | 0.00 | 85 | 1014.0 |
| 20260505051803 | 49 | 314 | 0.0 | 6.0 | 0.00 | 0.00 | 0.00 | 85 | 1014.0 |
| 20260505051603 | 49 | 314 | 0.0 | 6.0 | 0.00 | 0.00 | 0.00 | 85 | 1014.0 |
| 20260505051403 | 49 | 314 | 0.0 | 6.0 | 0.00 | 0.00 | 0.00 | 84 | 1014.0 |
| 20260505051203 | 49 | 309 | 0.0 | 6.0 | 0.00 | 0.00 | 0.00 | 84 | 1014.0 |
| 20260505051003 | 49 | 295 | 1.0 | 4.0 | 0.00 | 0.00 | 0.00 | 85 | 1014.0 |
| 20260505050804 | 49 | 296 | 1.0 | 4.0 | 0.00 | 0.00 | 0.00 | 85 | 1014.0 |
| 20260505050603 | 49 | 296 | 1.0 | 4.0 | 0.00 | 0.00 | 0.00 | 85 | 1014.0 |
| 20260505050403 | 49 | 296 | 1.0 | 4.0 | 0.00 | 0.00 | 0.00 | 84 | 1014.1 |
| 20260505050203 | 49 | 304 | 1.0 | 4.0 | 0.00 | 0.00 | 0.00 | 84 | 1014.1 |
| 20260505041604 | 50 | 308 | 0.0 | 4.0 | 0.00 | 0.00 | 0.00 | 79 | 1014.0 |
| 20260505041404 | 50 | 309 | 0.0 | 4.0 | 0.00 | 0.00 | 0.00 | 79 | 1014.0 |
| 20260505041203 | 50 | 304 | 0.0 | 3.0 | 0.00 | 0.00 | 0.00 | 78 | 1014.0 |
| 20260505041003 | 50 | 304 | 0.0 | 3.0 | 0.00 | 0.00 | 0.00 | 78 | 1013.9 |
| 20260505040804 | 50 | 308 | 0.0 | 2.0 | 0.00 | 0.00 | 0.00 | 78 | 1013.9 |
| 20260505040603 | 50 | 0 | 0.0 | 0.0 | 0.00 | 0.00 | 0.00 | 77 | 1013.9 |
| 20260505040424 | 50 | 0 | 0.0 | 0.0 | 0.00 | 0.00 | 0.00 | 77 | 1013.9 |
| 20260505040224 | 50 | 0 | 0.0 | 0.0 | 0.00 | 0.00 | 0.00 | 77 | 1013.8 |
| 20260505040004 | 50 | 297 | 0.0 | 4.0 | 0.00 | 0.00 | 0.00 | 77 | 1013.8 |
| 20260505035803 | 50 | 297 | 0.0 | 4.0 | 0.00 | 0.00 | 0.00 | 77 | 1013.7 |
| 20260505035603 | 50 | 297 | 0.0 | 4.0 | 0.00 | 0.00 | 0.00 | 77 | 1013.7 |
| 20260505035403 | 50 | 297 | 0.0 | 4.0 | 0.00 | 0.00 | 0.00 | 77 | 1013.7 |
| 20260505035203 | 50 | 332 | 0.0 | 4.0 | 0.00 | 0.00 | 0.00 | 77 | 1013.7 |
| 20260505035003 | 50 | 334 | 1.0 | 8.0 | 0.00 | 0.00 | 0.00 | 77 | 1013.7 |
| 20260505034804 | 50 | 335 | 1.0 | 8.0 | 0.00 | 0.00 | 0.00 | 77 | 1013.7 |
| 20260505034603 | 50 | 330 | 1.0 | 8.0 | 0.00 | 0.00 | 0.00 | 77 | 1013.7 |
| 20260505034403 | 50 | 333 | 1.0 | 8.0 | 0.00 | 0.00 | 0.00 | 77 | 1013.7 |
| 20260505034203 | 50 | 333 | 1.0 | 8.0 | 0.00 | 0.00 | 0.00 | 77 | 1013.6 |
| 20260505034003 | 50 | 331 | 1.0 | 6.0 | 0.00 | 0.00 | 0.00 | 77 | 1013.7 |
| 20260505033824 | 50 | 330 | 1.0 | 6.0 | 0.00 | 0.00 | 0.00 | 77 | 1013.6 |
| 20260505033603 | 50 | 331 | 1.0 | 6.0 | 0.00 | 0.00 | 0.00 | 77 | 1013.6 |
| 20260505033404 | 50 | 324 | 1.0 | 6.0 | 0.00 | 0.00 | 0.00 | 77 | 1013.6 |
| 20260505033204 | 50 | 321 | 1.0 | 6.0 | 0.00 | 0.00 | 0.00 | 77 | 1013.6 |
| 20260505033004 | 50 | 321 | 1.0 | 6.0 | 0.00 | 0.00 | 0.00 | 77 | 1013.6 |
| 20260505032803 | 50 | 321 | 1.0 | 6.0 | 0.00 | 0.00 | 0.00 | 77 | 1013.6 |
| 20260505032603 | 50 | 316 | 1.0 | 6.0 | 0.00 | 0.00 | 0.00 | 77 | 1013.6 |
| 20260505032404 | 50 | 323 | 0.0 | 6.0 | 0.00 | 0.00 | 0.00 | 77 | 1013.6 |
| 20260505032203 | 50 | 324 | 0.0 | 4.0 | 0.00 | 0.00 | 0.00 | 76 | 1013.6 |
| 20260505032003 | 50 | 313 | 1.0 | 5.0 | 0.00 | 0.00 | 0.00 | 76 | 1013.6 |
| 20260505031803 | 50 | 310 | 0.0 | 5.0 | 0.00 | 0.00 | 0.00 | 76 | 1013.5 |
| 20260505031604 | 50 | 320 | 1.0 | 5.0 | 0.00 | 0.00 | 0.00 | 76 | 1013.5 |
| 20260505031403 | 50 | 319 | 1.0 | 5.0 | 0.00 | 0.00 | 0.00 | 76 | 1013.5 |
| 20260505031203 | 50 | 318 | 1.0 | 5.0 | 0.00 | 0.00 | 0.00 | 76 | 1013.5 |
| 20260505031003 | 50 | 319 | 1.0 | 4.0 | 0.00 | 0.00 | 0.00 | 76 | 1013.5 |
| 20260505030825 | 50 | 318 | 1.0 | 4.0 | 0.00 | 0.00 | 0.00 | 76 | 1013.5 |
| 20260505030603 | 50 | 304 | 0.0 | 4.0 | 0.00 | 0.00 | 0.00 | 76 | 1013.5 |
| 20260505030404 | 51 | 304 | 0.0 | 4.0 | 0.00 | 0.00 | 0.00 | 76 | 1013.5 |
| 20260505030203 | 51 | 304 | 0.0 | 4.0 | 0.00 | 0.00 | 0.00 | 76 | 1013.4 |
| 20260505030004 | 51 | 308 | 0.0 | 2.0 | 0.00 | 0.00 | 0.00 | 76 | 1013.4 |
| 20260505025803 | 51 | 302 | 0.0 | 2.0 | 0.00 | 0.00 | 0.00 | 76 | 1013.4 |
| 20260505025604 | 51 | 284 | 0.0 | 1.0 | 0.00 | 0.00 | 0.00 | 76 | 1013.4 |
| 20260505025424 | 51 | 284 | 0.0 | 1.0 | 0.00 | 0.00 | 0.00 | 76 | 1013.4 |
| 20260505025203 | 51 | 281 | 0.0 | 4.0 | 0.00 | 0.00 | 0.00 | 76 | 1013.4 |
| 20260505025025 | 51 | 300 | 1.0 | 7.0 | 0.00 | 0.00 | 0.00 | 76 | 1013.3 |
| 20260505024803 | 51 | 304 | 1.0 | 7.0 | 0.00 | 0.00 | 0.00 | 76 | 1013.3 |
| 20260505024604 | 51 | 305 | 1.0 | 7.0 | 0.00 | 0.00 | 0.00 | 76 | 1013.3 |
| 20260505024403 | 51 | 306 | 1.0 | 7.0 | 0.00 | 0.00 | 0.00 | 76 | 1013.3 |
| 20260505024224 | 51 | 308 | 1.0 | 7.0 | 0.00 | 0.00 | 0.00 | 76 | 1013.4 |
| 20260505024003 | 51 | 300 | 1.0 | 7.0 | 0.00 | 0.00 | 0.00 | 76 | 1013.4 |
| 20260505023824 | 51 | 292 | 1.0 | 7.0 | 0.00 | 0.00 | 0.00 | 76 | 1013.4 |
| 20260505023603 | 51 | 288 | 1.0 | 7.0 | 0.00 | 0.00 | 0.00 | 76 | 1013.4 |
| 20260505023404 | 51 | 296 | 1.0 | 7.0 | 0.00 | 0.00 | 0.00 | 76 | 1013.3 |
| 20260505023204 | 51 | 296 | 1.0 | 7.0 | 0.00 | 0.00 | 0.00 | 76 | 1013.3 |
| 20260505023004 | 51 | 300 | 1.0 | 7.0 | 0.00 | 0.00 | 0.00 | 76 | 1013.3 |
| 20260505022804 | 51 | 304 | 1.0 | 8.0 | 0.00 | 0.00 | 0.00 | 75 | 1013.4 |
| 20260505022604 | 51 | 305 | 1.0 | 8.0 | 0.00 | 0.00 | 0.00 | 75 | 1013.4 |
| 20260505022424 | 51 | 305 | 1.0 | 8.0 | 0.00 | 0.00 | 0.00 | 75 | 1013.3 |
| 20260505022203 | 51 | 309 | 1.0 | 8.0 | 0.00 | 0.00 | 0.00 | 75 | 1013.2 |
| 20260505022004 | 51 | 308 | 1.0 | 8.0 | 0.00 | 0.00 | 0.00 | 75 | 1013.3 |
| 20260505021804 | 51 | 311 | 1.0 | 7.0 | 0.00 | 0.00 | 0.00 | 75 | 1013.3 |
| 20260505021604 | 51 | 310 | 1.0 | 7.0 | 0.00 | 0.00 | 0.00 | 75 | 1013.3 |
| 20260505021403 | 51 | 312 | 1.0 | 7.0 | 0.00 | 0.00 | 0.00 | 75 | 1013.3 |
| 20260505021203 | 52 | 313 | 1.0 | 5.0 | 0.00 | 0.00 | 0.00 | 75 | 1013.2 |
| 20260505021003 | 52 | 317 | 1.0 | 6.0 | 0.00 | 0.00 | 0.00 | 75 | 1013.1 |
| 20260505020803 | 52 | 316 | 1.0 | 7.0 | 0.00 | 0.00 | 0.00 | 75 | 1013.2 |
| 20260505020603 | 52 | 320 | 1.0 | 7.0 | 0.00 | 0.00 | 0.00 | 75 | 1013.2 |
| 20260505020404 | 52 | 316 | 1.0 | 7.0 | 0.00 | 0.00 | 0.00 | 75 | 1013.1 |
| 20260505020224 | 52 | 313 | 1.0 | 7.0 | 0.00 | 0.00 | 0.00 | 75 | 1013.1 |
| 20260505020004 | 52 | 311 | 1.0 | 7.0 | 0.00 | 0.00 | 0.00 | 75 | 1013.2 |
| 20260505015804 | 52 | 308 | 1.0 | 7.0 | 0.00 | 0.00 | 0.00 | 75 | 1013.1 |
| 20260505015604 | 52 | 302 | 1.0 | 7.0 | 0.00 | 0.00 | 0.00 | 74 | 1013.2 |
| 20260505015403 | 52 | 298 | 2.0 | 8.0 | 0.00 | 0.00 | 0.00 | 74 | 1013.1 |
| 20260505015224 | 52 | 294 | 2.0 | 9.0 | 0.00 | 0.00 | 0.00 | 74 | 1013.1 |
| 20260505015003 | 52 | 291 | 2.0 | 9.0 | 0.00 | 0.00 | 0.00 | 74 | 1013.1 |
| 20260505014803 | 52 | 292 | 2.0 | 9.0 | 0.00 | 0.00 | 0.00 | 74 | 1013.1 |
| 20260505014603 | 52 | 296 | 3.0 | 9.0 | 0.00 | 0.00 | 0.00 | 73 | 1013.2 |
| 20260505014404 | 52 | 300 | 2.0 | 9.0 | 0.00 | 0.00 | 0.00 | 73 | 1013.2 |
| 20260505014203 | 52 | 306 | 2.0 | 8.0 | 0.00 | 0.00 | 0.00 | 73 | 1013.2 |
| 20260505014004 | 52 | 303 | 2.0 | 10.0 | 0.00 | 0.00 | 0.00 | 72 | 1013.2 |
| 20260505013803 | 52 | 301 | 3.0 | 10.0 | 0.00 | 0.00 | 0.00 | 72 | 1013.2 |
| 20260505013603 | 53 | 298 | 3.0 | 10.0 | 0.00 | 0.00 | 0.00 | 72 | 1013.2 |
| 20260505013403 | 53 | 295 | 3.0 | 10.0 | 0.00 | 0.00 | 0.00 | 71 | 1013.2 |
| 20260505013204 | 53 | 293 | 4.0 | 10.0 | 0.00 | 0.00 | 0.00 | 71 | 1013.2 |
| 20260505013004 | 53 | 293 | 4.0 | 10.0 | 0.00 | 0.00 | 0.00 | 71 | 1013.2 |
| 20260505012803 | 53 | 291 | 3.0 | 10.0 | 0.00 | 0.00 | 0.00 | 70 | 1013.2 |
| 20260505012603 | 53 | 291 | 3.0 | 10.0 | 0.00 | 0.00 | 0.00 | 70 | 1013.3 |
| 20260505012403 | 54 | 292 | 3.0 | 10.0 | 0.00 | 0.00 | 0.00 | 70 | 1013.3 |
| 20260505012203 | 54 | 294 | 3.0 | 7.0 | 0.00 | 0.00 | 0.00 | 70 | 1013.3 |
| 20260505012025 | 54 | 291 | 3.0 | 10.0 | 0.00 | 0.00 | 0.00 | 69 | 1013.2 |
| 20260505011804 | 54 | 293 | 4.0 | 10.0 | 0.00 | 0.00 | 0.00 | 68 | 1013.2 |
| 20260505011604 | 54 | 292 | 4.0 | 10.0 | 0.00 | 0.00 | 0.00 | 68 | 1013.1 |
| 20260505011404 | 54 | 292 | 4.0 | 10.0 | 0.00 | 0.00 | 0.00 | 68 | 1013.1 |
| 20260505011203 | 55 | 292 | 5.0 | 11.0 | 0.00 | 0.00 | 0.00 | 68 | 1013.1 |
| 20260505011003 | 55 | 293 | 5.0 | 11.0 | 0.00 | 0.00 | 0.00 | 68 | 1013.1 |
| 20260505010803 | 55 | 293 | 5.0 | 11.0 | 0.00 | 0.00 | 0.00 | 68 | 1013.1 |
| 20260505010603 | 55 | 291 | 5.0 | 11.0 | 0.00 | 0.00 | 0.00 | 67 | 1013.2 |
| 20260505010403 | 55 | 291 | 5.0 | 11.0 | 0.00 | 0.00 | 0.00 | 67 | 1013.2 |
| 20260505010224 | 56 | 291 | 4.0 | 11.0 | 0.00 | 0.00 | 0.00 | 67 | 1013.2 |
| 20260505010024 | 55 | 291 | 4.0 | 11.0 | 0.00 | 0.00 | 0.00 | 68 | 1013.2 |
| 20260505005824 | 55 | 290 | 4.0 | 11.0 | 0.00 | 0.00 | 0.00 | 69 | 1013.2 |
| 20260505005603 | 54 | 294 | 4.0 | 9.0 | 0.00 | 0.00 | 0.00 | 70 | 1013.1 |
| 20260505005404 | 54 | 293 | 4.0 | 10.0 | 0.00 | 0.00 | 0.00 | 69 | 1013.2 |
| 20260505005203 | 54 | 291 | 3.0 | 10.0 | 0.00 | 0.00 | 0.00 | 69 | 1013.1 |
| 20260505005024 | 54 | 290 | 3.0 | 10.0 | 0.00 | 0.00 | 0.00 | 69 | 1013.1 |
| 20260505004803 | 54 | 292 | 3.0 | 10.0 | 0.00 | 0.00 | 0.00 | 69 | 1013.2 |
| 20260505004603 | 54 | 291 | 2.0 | 10.0 | 0.00 | 0.00 | 0.00 | 68 | 1013.1 |
| 20260505004403 | 54 | 292 | 2.0 | 7.0 | 0.00 | 0.00 | 0.00 | 67 | 1013.1 |
| 20260505004204 | 54 | 291 | 2.0 | 6.0 | 0.00 | 0.00 | 0.00 | 67 | 1013.1 |
| 20260505004003 | 54 | 289 | 3.0 | 8.0 | 0.00 | 0.00 | 0.00 | 67 | 1013.1 |
| 20260505003803 | 54 | 291 | 3.0 | 10.0 | 0.00 | 0.00 | 0.00 | 67 | 1013.2 |
| 20260505003604 | 54 | 292 | 3.0 | 10.0 | 0.00 | 0.00 | 0.00 | 67 | 1013.2 |
| 20260505003403 | 54 | 294 | 3.0 | 10.0 | 0.00 | 0.00 | 0.00 | 67 | 1013.2 |
| 20260505003203 | 55 | 295 | 3.0 | 10.0 | 0.00 | 0.00 | 0.00 | 66 | 1013.3 |
| 20260505003004 | 55 | 298 | 3.0 | 10.0 | 0.00 | 0.00 | 0.00 | 66 | 1013.2 |
| 20260505002824 | 55 | 299 | 2.0 | 6.0 | 0.00 | 0.00 | 0.00 | 66 | 1013.3 |
| 20260505002603 | 55 | 301 | 3.0 | 6.0 | 0.00 | 0.00 | 0.00 | 65 | 1013.2 |
| 20260505002403 | 55 | 302 | 3.0 | 7.0 | 0.00 | 0.00 | 0.00 | 64 | 1013.2 |
| 20260505002203 | 55 | 304 | 3.0 | 8.0 | 0.00 | 0.00 | 0.00 | 63 | 1013.2 |
| 20260505002004 | 55 | 307 | 3.0 | 8.0 | 0.00 | 0.00 | 0.00 | 63 | 1013.3 |
| 20260505001803 | 55 | 302 | 3.0 | 8.0 | 0.00 | 0.00 | 0.00 | 62 | 1013.3 |
| 20260505001403 | 55 | 294 | 3.0 | 8.0 | 0.00 | 0.00 | 0.00 | 62 | 1013.3 |
| 20260505001204 | 56 | 293 | 3.0 | 8.0 | 0.00 | 0.00 | 0.00 | 61 | 1013.3 |
| 20260505001003 | 56 | 291 | 3.0 | 8.0 | 0.00 | 0.00 | 0.00 | 60 | 1013.2 |
| 20260505000803 | 56 | 296 | 3.0 | 8.0 | 0.00 | 0.00 | 0.00 | 60 | 1013.2 |
| 20260505000603 | 56 | 301 | 3.0 | 7.0 | 0.00 | 0.00 | 0.00 | 60 | 1013.1 |
| 20260505000405 | 56 | 308 | 3.0 | 7.0 | 0.00 | 0.00 | 0.00 | 60 | 1013.1 |
| 20260505000204 | 56 | 310 | 3.0 | 8.0 | 0.00 | 0.00 | 0.00 | 59 | 1013.1 |
| 20260505000004 | 56 | 313 | 3.0 | 8.0 | 0.00 | 0.00 | 0.00 | 59 | 1013.2 |
| 20260504235803 | 56 | 316 | 3.0 | 8.0 | 0.00 | 0.00 | 0.00 | 59 | 1013.1 |
| 20260504235604 | 56 | 318 | 3.0 | 8.0 | 0.00 | 0.00 | 0.00 | 59 | 1013.1 |
| 20260504235424 | 56 | 318 | 3.0 | 8.0 | 0.00 | 0.00 | 0.00 | 59 | 1013.0 |
| 20260504235203 | 57 | 322 | 3.0 | 8.0 | 0.00 | 0.00 | 0.00 | 59 | 1013.0 |
| 20260504235003 | 57 | 328 | 2.0 | 8.0 | 0.00 | 0.00 | 0.00 | 59 | 1013.0 |
| 20260504234803 | 57 | 319 | 2.0 | 8.0 | 0.00 | 0.00 | 0.00 | 60 | 1013.0 |
| 20260504234603 | 56 | 309 | 3.0 | 9.0 | 0.00 | 0.00 | 0.00 | 59 | 1013.0 |
| 20260504234403 | 57 | 303 | 3.0 | 9.0 | 0.00 | 0.00 | 0.00 | 59 | 1013.0 |
| 20260504234203 | 57 | 305 | 3.0 | 9.0 | 0.00 | 0.00 | 0.00 | 59 | 1013.0 |
| 20260504234003 | 56 | 303 | 3.0 | 9.0 | 0.00 | 0.00 | 0.00 | 58 | 1013.0 |
| 20260504233824 | 57 | 307 | 3.0 | 9.0 | 0.00 | 0.00 | 0.00 | 58 | 1013.0 |
| 20260504233603 | 57 | 322 | 3.0 | 9.0 | 0.00 | 0.00 | 0.00 | 58 | 1012.9 |
| 20260504233424 | 57 | 333 | 2.0 | 8.0 | 0.00 | 0.00 | 0.00 | 58 | 1012.9 |
| 20260504233204 | 57 | 330 | 2.0 | 6.0 | 0.00 | 0.00 | 0.00 | 58 | 1012.9 |
| 20260504233003 | 57 | 333 | 2.0 | 6.0 | 0.00 | 0.00 | 0.00 | 57 | 1012.9 |
| 20260504232804 | 57 | 330 | 2.0 | 8.0 | 0.00 | 0.00 | 0.00 | 57 | 1012.9 |
| 20260504232624 | 57 | 324 | 2.0 | 8.0 | 0.00 | 0.00 | 0.00 | 56 | 1012.8 |
| 20260504232424 | 57 | 323 | 2.0 | 8.0 | 0.00 | 0.00 | 0.00 | 57 | 1012.9 |
| 20260504232203 | 57 | 325 | 2.0 | 8.0 | 0.00 | 0.00 | 0.00 | 57 | 1012.9 |
| 20260504232004 | 57 | 324 | 2.0 | 8.0 | 0.00 | 0.00 | 0.00 | 56 | 1012.9 |
| 20260504231803 | 56 | 325 | 2.0 | 6.0 | 0.00 | 0.00 | 0.00 | 57 | 1012.8 |
| 20260504231603 | 56 | 331 | 2.0 | 6.0 | 0.00 | 0.00 | 0.00 | 57 | 1012.8 |
| 20260504231403 | 56 | 319 | 2.0 | 6.0 | 0.00 | 0.00 | 0.00 | 56 | 1012.9 |
| 20260504231203 | 56 | 316 | 2.0 | 6.0 | 0.00 | 0.00 | 0.00 | 56 | 1012.9 |
| 20260504231003 | 56 | 303 | 2.0 | 6.0 | 0.00 | 0.00 | 0.00 | 57 | 1012.9 |
| 20260504230803 | 56 | 296 | 2.0 | 6.0 | 0.00 | 0.00 | 0.00 | 56 | 1012.9 |
| 20260504230624 | 56 | 293 | 2.0 | 6.0 | 0.00 | 0.00 | 0.00 | 56 | 1013.0 |
| 20260504230403 | 56 | 297 | 1.0 | 6.0 | 0.00 | 0.00 | 0.00 | 57 | 1013.0 |
| 20260504230203 | 56 | 287 | 1.0 | 5.0 | 0.00 | 0.00 | 0.00 | 56 | 1013.1 |
| 20260504230024 | 56 | 292 | 1.0 | 5.0 | 0.00 | 0.00 | 0.00 | 58 | 1013.0 |
| 20260504225804 | 55 | 293 | 1.0 | 7.0 | 0.00 | 0.00 | 0.00 | 57 | 1013.1 |
| 20260504225603 | 55 | 291 | 1.0 | 7.0 | 0.00 | 0.00 | 0.00 | 57 | 1013.2 |
| 20260504225403 | 55 | 290 | 2.0 | 7.0 | 0.00 | 0.00 | 0.00 | 57 | 1013.2 |
| 20260504225203 | 55 | 297 | 2.0 | 7.0 | 0.00 | 0.00 | 0.00 | 57 | 1013.2 |
| 20260504225004 | 55 | 298 | 2.0 | 7.0 | 0.00 | 0.00 | 0.00 | 57 | 1013.1 |
| 20260504224803 | 55 | 304 | 3.0 | 6.0 | 0.00 | 0.00 | 0.00 | 57 | 1013.1 |
| 20260504224603 | 55 | 303 | 3.0 | 8.0 | 0.00 | 0.00 | 0.00 | 57 | 1013.2 |
| 20260504224403 | 55 | 304 | 3.0 | 8.0 | 0.00 | 0.00 | 0.00 | 57 | 1013.3 |
| 20260504224203 | 56 | 300 | 3.0 | 8.0 | 0.00 | 0.00 | 0.00 | 57 | 1013.3 |
| 20260504224003 | 56 | 300 | 2.0 | 8.0 | 0.00 | 0.00 | 0.00 | 58 | 1013.3 |
| 20260504223803 | 56 | 292 | 2.0 | 8.0 | 0.00 | 0.00 | 0.00 | 57 | 1013.3 |
| 20260504223624 | 56 | 294 | 2.0 | 6.0 | 0.00 | 0.00 | 0.00 | 56 | 1013.3 |
| 20260504223403 | 56 | 302 | 1.0 | 4.0 | 0.00 | 0.00 | 0.00 | 57 | 1013.3 |
| 20260504223203 | 56 | 300 | 1.0 | 4.0 | 0.00 | 0.00 | 0.00 | 57 | 1013.4 |
| 20260504223004 | 56 | 286 | 1.0 | 4.0 | 0.00 | 0.00 | 0.00 | 57 | 1013.4 |
| 20260504222803 | 56 | 282 | 1.0 | 5.0 | 0.00 | 0.00 | 0.00 | 57 | 1013.4 |
| 20260504222603 | 56 | 265 | 1.0 | 5.0 | 0.00 | 0.00 | 0.00 | 57 | 1013.5 |
| 20260504222404 | 56 | 223 | 1.0 | 5.0 | 0.00 | 0.00 | 0.00 | 57 | 1013.4 |
| 20260504222203 | 56 | 236 | 1.0 | 5.0 | 0.00 | 0.00 | 0.00 | 57 | 1013.4 |
| 20260504222003 | 56 | 305 | 1.0 | 8.0 | 0.00 | 0.00 | 0.00 | 56 | 1013.5 |
| 20260504221803 | 56 | 309 | 2.0 | 8.0 | 0.00 | 0.00 | 0.00 | 56 | 1013.6 |
| 20260504221603 | 56 | 306 | 2.0 | 8.0 | 0.00 | 0.00 | 0.00 | 56 | 1013.6 |
| 20260504221424 | 56 | 311 | 2.0 | 8.0 | 0.00 | 0.00 | 0.00 | 57 | 1013.6 |
| 20260504221225 | 56 | 307 | 3.0 | 8.0 | 0.00 | 0.00 | 0.00 | 56 | 1013.6 |
| 20260504221003 | 56 | 302 | 2.0 | 6.0 | 0.00 | 0.00 | 0.00 | 57 | 1013.6 |
| 20260504220804 | 56 | 301 | 2.0 | 6.0 | 0.00 | 0.00 | 0.00 | 57 | 1013.6 |
| 20260504220624 | 56 | 310 | 1.0 | 5.0 | 0.00 | 0.00 | 0.00 | 59 | 1013.5 |
| 20260504220403 | 56 | 315 | 1.0 | 6.0 | 0.00 | 0.00 | 0.00 | 58 | 1013.6 |
| 20260504220204 | 56 | 321 | 2.0 | 6.0 | 0.00 | 0.00 | 0.00 | 58 | 1013.7 |
| 20260504220024 | 56 | 321 | 2.0 | 6.0 | 0.00 | 0.00 | 0.00 | 59 | 1013.7 |
| 20260504215803 | 56 | 312 | 3.0 | 7.0 | 0.00 | 0.00 | 0.00 | 59 | 1013.7 |
| 20260504215603 | 56 | 307 | 3.0 | 7.0 | 0.00 | 0.00 | 0.00 | 59 | 1013.9 |
| 20260504215424 | 56 | 305 | 3.0 | 7.0 | 0.00 | 0.00 | 0.00 | 59 | 1013.9 |
| 20260504215204 | 56 | 301 | 3.0 | 7.0 | 0.00 | 0.00 | 0.00 | 59 | 1013.8 |
| 20260504215024 | 56 | 301 | 3.0 | 7.0 | 0.00 | 0.00 | 0.00 | 59 | 1013.8 |
| 20260504214803 | 56 | 306 | 2.0 | 6.0 | 0.00 | 0.00 | 0.00 | 60 | 1013.9 |
| 20260504214604 | 56 | 306 | 3.0 | 7.0 | 0.00 | 0.00 | 0.00 | 59 | 1013.9 |
| 20260504214424 | 56 | 304 | 3.0 | 7.0 | 0.00 | 0.00 | 0.00 | 59 | 1013.9 |
| 20260504214204 | 56 | 301 | 3.0 | 8.0 | 0.00 | 0.00 | 0.00 | 60 | 1014.0 |
| 20260504214003 | 56 | 300 | 3.0 | 8.0 | 0.00 | 0.00 | 0.00 | 60 | 1014.0 |
| 20260504213824 | 56 | 298 | 3.0 | 8.0 | 0.00 | 0.00 | 0.00 | 59 | 1014.1 |
| 20260504213604 | 56 | 294 | 3.0 | 8.0 | 0.00 | 0.00 | 0.00 | 59 | 1014.1 |
| 20260504213404 | 56 | 292 | 2.0 | 8.0 | 0.00 | 0.00 | 0.00 | 58 | 1014.1 |
| 20260504213203 | 56 | 292 | 2.0 | 7.0 | 0.00 | 0.00 | 0.00 | 59 | 1014.2 |
| 20260504213004 | 56 | 293 | 2.0 | 7.0 | 0.00 | 0.00 | 0.00 | 59 | 1014.2 |
| 20260504212803 | 56 | 296 | 3.0 | 8.0 | 0.00 | 0.00 | 0.00 | 59 | 1014.2 |
| 20260504212604 | 55 | 297 | 2.0 | 8.0 | 0.00 | 0.00 | 0.00 | 58 | 1014.3 |
| 20260504212424 | 55 | 297 | 3.0 | 8.0 | 0.00 | 0.00 | 0.00 | 58 | 1014.4 |
| 20260504212203 | 56 | 296 | 3.0 | 8.0 | 0.00 | 0.00 | 0.00 | 57 | 1014.2 |
| 20260504212003 | 56 | 297 | 2.0 | 8.0 | 0.00 | 0.00 | 0.00 | 57 | 1014.2 |
| 20260504211803 | 56 | 299 | 2.0 | 7.0 | 0.00 | 0.00 | 0.00 | 56 | 1014.3 |
| 20260504211603 | 56 | 298 | 2.0 | 7.0 | 0.00 | 0.00 | 0.00 | 57 | 1014.3 |